CAPE
1 0 0 0 0 0 0 0 0 0 0 1 3 4 2 0 7 9 0 0 14 7 0 0 0 0 0 0 0 0 41 45 169 276 111 26 48 0 0 0 0 0 10 14 104 0 0 147 237 214 643 968 1075 640
1 0 0 0 0 0 0 0 0 0 0 0 4 4 2 1 7 26 0 0 2 3 0 0 0 0 0 0 0 0 0 0 12 37 12 1 0 0 0 0 0 50 5 27 109 128 24 144 383 442 851 989 633 344
2 0 0 0 0 0 0 0 0 0 0 0 2 4 2 2 5 23 4 0 1 7 0 0 0 0 0 0 0 0 0 0 4 2 9 0 0 0 0 0 0 3 33 90 121 79 15 171 135 133 312 370 153 116
2 1 0 0 0 0 0 0 2 3 0 0 5 3 2 2 4 12 14 6 4 5 1 0 0 0 0 0 0 0 0 0 0 0 0 0 0 0 0 0 0 1 6 4 57 92 7 13 64 71 7 27 219 261
2 0 0 0 0 2 0 0 5 3 0 0 0 3 3 0 0 9 8 5 0 0 0 0 0 0 0 0 0 0 0 0 0 0 0 0 44 0 4 5 0 0 2 7 13 0 2 30 129 135 237 426 97 995
2 1 0 0 0 0 0 0 4 3 0 0 7 3 2 0 14 3 2 0 0 0 1 0 0 0 0 0 0 0 0 0 0 0 0 0 97 167 98 24 40 0 0 0 0 0 0 0 0 7 174 240 460 1415
2 1 0 0 0 0 0 0 5 0 1 5 4 2 0 0 12 4 1 0 0 0 1 2 0 0 0 0 0 0 0 0 0 0 0 0 0 52 0 3 0 25 1 0 26 23 0 0 0 15 11 226 410 1445
2 0 1 0 0 0 0 0 6 0 2 3 0 0 0 3 0 1 0 0 0 0 1 2 0 0 0 0 0 0 0 0 0 0 0 0 0 11 54 109 16 0 0 0 4 105 32 2 89 37 501 222 550 844
0 4 3 0 0 0 0 2 1 0 2 0 0 0 4 7 1 0 0 0 0 0 1 2 0 0 0 0 0 4 0 0 0 0 0 0 0 2 122 158 191 17 18 5 4 1 60 92 1 121 882 860 806 458
2 2 0 0 0 0 1 6 0 0 0 0 0 1 10 2 0 0 0 1 1 1 1 1 0 0 0 0 8 26 16 5 0 0 0 0 0 0 32 157 100 38 5 0 0 53 197 83 0 81 620 830 521 308
3 0 0 0 0 0 0 2 0 1 3 2 5 2 1 0 0 2 2 1 1 2 0 0 0 0 0 0 7 17 25 12 2 0 0 0 0 0 0 0 50 30 1 150 178 134 61 50 0 24 211 95 79 27
0 0 0 0 0 0 2 0 0 0 0 0 1 0 0 1 1 1 1 0 0 0 0 0 1 0 0 0 6 5 20 42 17 3 2 0 52 622 143 60 163 13 49 49 200 194 465 360 89 13 0 0 0 0
0 0 0 0 0 0 2 0 0 0 0 1 2 0 1 1 0 2 5 4 1 0 4 34 19 49 10 29 5 1 3 0 0 45 60 159 299 280 283 106 90 4 0 262 863 606 242 191 74 47 13 44 75 0
0 0 0 0 0 0 4 0 0 1 1 1 7 0 0 0 0 0 0 0 0 3 12 2 1 18 34 35 2 0 0 0 0 1 44 230 308 290 262 226 159 18 211 761 872 850 565 274 106 480 595 287 9 33
0 0 0 0 0 0 4 1 0 2 2 1 7 1 0 0 0 0 0 3 12 5 0 0 0 13 12 34 51 11 2 0 2 1 93 8 29 0 1 463 635 721 700 786 773 829 852 775 748 648 526 407 260 173
0 0 0 0 0 2 0 2 2 0 1 1 5 1 2 3 18 32 24 25 0 1 0 0 0 14 11 38 26 6 0 0 0 27 82 140 54 0 29 710 859 778 643 576 500 393 428 365 375 269 106 52 12 0
0 0 0 0 0 1 3 0 0 0 0 1 1 0 0 0 3 9 6 0 2 0 0 2 4 1 10 27 19 16 0 18 0 0 0 5 84 220 666 605 559 510 452 394 274 142 61 13 1 0 0 0 0 0
0 3 0 0 2 2 1 0 0 0 0 0 0 0 0 16 15 10 1 0 0 5 11 1 5 3 25 28 33 14 4 0 0 0 0 0 34 354 544 695 580 443 318 198 132 55 7 0 0 0 0 0 0 0
0 0 0 0 0 0 0 0 1 0 0 0 0 0 0 0 7 4 2 7 10 21 18 10 6 0 5 11 14 9 3 0 0 0 0 27 157 395 464 443 333 280 184 93 29 0 0 0 0 0 0 0 0 0
0 1 0 0 2 5 0 3 0 0 0 2 3 1 4 6 8 5 3 2 2 9 24 1 4 9 0 0 0 2 33 0 1 1 29 134 316 451 374 291 122 48 12 0 0 0 0 0 0 0 0 0 0 0
0 6 5 3 3 2 7 0 0 0 0 0 14 17 18 2 5 0 0 0 3 12 10 5 14 10 1 14 0 0 0 13 27 0 0 116 55 254 277 90 41 2 0 0 0 0 0 0 0 0 0 0 0 0
3 5 1 1 1 13 1 0 0 0 0 6 20 16 4 4 0 0 0 3 12 5 1 0 1 0 0 0 0 2 2 3 3 0 0 51 61 127 134 133 59 0 0 1 2 0 0 0 0 0 0 0 0 0
0 7 1 0 1 3 1 1 0 3 10 21 19 3 3 0 0 1 1 0 0 0 0 0 0 0 3 0 6 40 63 33 36 24 33 34 60 27 77 127 105 81 48 9 10 0 1 0 0 0 0 0 0 0
5 5 4 5 0 0 1 0 8 12 11 18 15 0 0 0 0 0 0 0 5 1 8 17 16 3 0 1 10 36 52 47 43 56 34 37 1 18 70 57 121 50 33 50 29 10 13 0 0 0 0 1 8 13
0 3 6 5 12 2 0 0 5 3 0 0 2 0 0 0 0 0 7 10 18 14 27 20 29 23 26 32 8 24 26 10 16 28 32 64 20 42 56 45 26 88 52 29 36 23 35 38 12 17 14 10 13 9
0 0 0 0 0 1 2 1 2 8 4 2 0 3 0 0 0 2 14 37 36 47 52 89 46 25 39 30 32 21 11 3 3 10 9 5 6 6 9 18 25 97 38 50 60 29 66 62 47 26 8 3 1 19
4 10 1 9 2 1 3 13 10 1 1 3 1 2 0 2 6 11 22 33 19 45 65 32 13 12 12 8 16 18 13 13 10 12 2 0 0 2 18 24 30 41 24 15 26 22 33 64 78 45 45 41 27 15
5 3 7 8 6 1 1 6 3 0 1 1 2 7 13 7 4 16 15 12 8 19 28 66 37 25 24 40 6 0 1 3 12 9 8 1 10 21 18 21 5 2 1 2 47 62 44 56 37 39 53 31 33 39
0 0 0 0 8 28 17 17 6 2 15 11 6 6 8 4 37 31 28 32 6 2 5 11 26 24 8 16 26 27 23 12 8 10 12 10 18 17 14 13 9 3 1 0 0 5 32 35 33 47 48 39 28 34
0 0 3 8 14 3 11 0 9 16 13 1 0 7 12 30 47 53 29 25 35 50 35 29 4 0 11 18 3 4 3 0 7 7 14 17 21 14 0 4 9 0 1 14 2 18 16 1 0 0 0 0 4 21
0 0 4 6 12 18 17 4 2 0 3 0 2 6 20 41 41 27 26 2 0 3 52 62 65 24 20 45 56 21 6 3 0 1 7 4 26 26 14 11 12 3 0 15 53 37 37 9 0 2 0 0 0 6
0 0 4 3 2 3 4 0 0 16 26 4 7 7 26 22 25 14 11 36 23 24 35 47 70 73 23 35 17 13 4 31 8 0 11 57 56 33 33 14 14 4 3 2 0 7 19 27 10 3 6 17 20 32
0 1 3 1 5 6 6 14 13 18 6 1 5 23 15 26 11 13 6 17 0 0 7 28 0 0 14 1 0 10 5 13 0 0 8 0 3 0 0 0 0 1 2 0 0 0 5 2 3 16 12 19 26 33
CIN
0 0 0 0 0 0 0 0 0 0 0 -15 -16 -5 -1 0 0 0 0 0 -1 -2 0 0 0 0 0 0 0 0 -177 -188 -129 -89 -111 -144 -96 0 0 0 0 -16 -96 -100 -138 0 0 -395 -291 -43 -129 -334 -285 -313
0 0 0 0 0 0 0 0 0 0 0 -5 -15 -9 -2 -1 -1 0 0 -7 -36 -2 0 0 0 0 0 0 0 0 0 0 -38 -176 -233 -23 0 0 0 0 0 -134 -17 -127 -183 -211 -402 -550 -388 -487 -303 -195 -146 -126
0 0 0 0 0 0 0 0 0 0 0 -5 -16 -13 -6 -3 -8 0 -2 0 -24 -10 0 0 0 0 0 0 0 0 0 0 -18 -186 -149 0 0 0 0 0 0 -45 -348 -166 -187 -232 -318 -383 -513 -509 -406 -322 -402 -365
0 0 0 0 0 0 0 0 -7 -5 0 0 -19 -12 -11 -5 -9 -2 -3 -11 -20 -9 0 0 0 0 0 0 0 0 0 0 0 0 0 0 0 0 0 0 0 -23 -278 -209 -135 -191 -337 -324 -370 -371 -499 -523 -413 -337
0 0 0 0 0 -1 0 0 -9 -6 0 0 -11 -14 -11 0 0 -8 -9 -20 -5 -4 -1 0 0 0 0 0 0 0 0 0 0 0 0 0 -157 0 -176 -116 -1 0 -95 -162 -70 0 -51 -246 -225 -319 -291 -240 -302 -212
0 0 0 0 0 0 0 -2 -7 -5 0 -6 -12 -14 -12 0 -5 -11 -7 0 0 0 -13 0 0 0 0 0 0 0 0 0 0 0 0 0 -51 -48 -42 -80 -86 0 -9 -8 0 0 0 0 0 -425 -270 -230 -217 -148
0 0 0 0 0 0 0 -5 -2 -1 -15 -13 -14 -13 0 -1 -1 0 -1 0 0 0 0 0 0 0 0 0 0 0 0 0 0 0 0 0 0 -59 0 -11 0 -107 -36 0 -207 -224 0 0 0 -173 -249 -261 -248 -115
0 -1 -1 0 0 0 0 -1 0 0 -10 -14 -4 0 0 -12 -6 0 0 0 0 0 0 0 0 0 0 -6 0 0 0 0 0 0 0 0 0 -30 -19 -57 -220 0 0 0 -285 -151 -291 -253 -246 -203 -112 -137 -127 -142
0 0 0 0 0 0 0 -2 0 0 -11 0 0 0 -11 -4 -9 -3 0 0 0 0 -2 0 0 0 0 0 0 -11 0 0 0 0 0 0 0 -4 -36 -34 -79 -138 -160 -181 -222 -28 -292 -216 -52 -179 -119 -163 -174 -219
0 0 0 0 0 0 -11 -1 0 0 0 0 0 -5 -1 -5 0 0 0 0 0 0 0 0 0 0 0 0 -49 -30 -27 -19 0 0 0 0 0 0 -55 -85 -75 -105 -179 0 0 -166 -164 -169 0 -174 -134 -137 -187 -265
-1 0 0 0 0 0 -10 -3 0 0 0 0 -5 -1 0 0 0 0 -3 -11 0 0 -1 0 0 0 0 0 -73 -56 -24 -10 -9 0 0 0 0 0 0 0 -80 -133 -64 -116 -72 -87 -140 -142 0 -208 -208 -315 -351 -274
0 0 0 0 0 0 -7 0 0 -1 0 0 -1 0 0 0 0 -3 0 0 -6 -1 0 0 -21 0 0 0 -51 -58 -23 -19 -6 -109 -15 0 -21 -75 -72 -64 -54 -101 -99 -141 -160 -92 -89 -57 -199 -302 0 0 0 0
0 0 0 0 0 0 -3 0 0 0 0 0 0 0 0 0 0 -1 0 -5 -1 0 -3 -17 -19 -10 -30 -33 -45 -58 -19 0 0 -36 -18 -40 -87 -133 -121 -179 -133 -21 0 -123 -88 -131 -208 -234 -319 -278 -295 -357 -259 0
0 0 0 0 0 0 0 0 0 0 0 0 0 -1 -2 0 0 0 0 0 -3 -17 -16 -32 -36 -27 -23 -21 -54 0 0 0 0 -28 -14 -80 -123 -126 -145 -152 -136 -12 -110 -99 -124 -144 -181 -251 -321 -290 -287 -337 -36 -347
0 0 0 0 0 0 0 0 0 0 0 -2 -1 -1 0 0 0 0 0 -15 -18 -36 0 0 0 -49 -40 -14 -23 -29 -16 0 -3 -12 -69 -197 -128 0 -16 -53 -79 -95 -106 -118 -119 -131 -163 -191 -181 -207 -258 -267 -289 -313
0 0 0 0 0 0 0 0 0 -1 0 -1 -7 -5 -19 -5 -5 -6 -10 -9 -29 -20 -4 -13 0 -21 -20 -14 -9 -20 0 0 0 -97 -195 -197 -197 -41 -133 -58 -68 -99 -112 -129 -158 -191 -192 -201 -199 -229 -257 -276 -105 0
0 0 -1 0 0 0 0 0 -1 0 0 -13 -5 0 -22 -13 -18 -10 -30 -20 -46 0 -2 -22 -13 -13 -28 -10 -10 -33 0 -45 -1 0 0 -189 -144 -63 -29 -58 -83 -113 -136 -151 -163 -172 -175 -223 -21 0 0 0 0 0
0 -7 0 0 0 0 0 0 0 0 0 0 0 0 -1 -17 -16 -25 -38 0 0 -12 -8 -10 -23 -10 -10 -9 -9 -28 -73 0 0 0 0 0 -81 -23 -46 -73 -115 -113 -126 -145 -158 -191 -180 0 0 0 0 0 0 0
-1 -3 0 0 0 0 -4 0 -1 0 0 0 0 0 0 0 -37 -33 -13 -18 -15 -2 -5 -6 -15 -10 -11 -9 -10 -3 -27 0 0 0 0 -58 -69 -21 -49 -92 -101 -101 -108 -133 -143 0 0 0 0 0 0 0 0 0
0 -1 0 0 -4 -17 -15 -15 0 0 0 -13 -33 -11 -15 -23 -33 -32 -23 -19 -2 0 0 -7 -8 -5 -10 -10 0 -1 -30 0 -128 -46 -73 -55 -49 -19 -74 -98 -94 -98 -61 0 0 0 0 0 0 0 0 0 0 0
0 0 0 0 0 -31 -22 -1 0 0 0 0 -23 -23 -10 -31 -26 0 0 0 0 -5 -2 -11 -15 -25 -48 -49 -1 0 0 -79 -29 0 0 -41 -7 -25 -52 -77 -74 -66 0 0 0 0 0 0 0 0 0 0 0 0
-1 -1 0 0 -5 -40 0 0 0 0 0 -15 -8 -9 -16 -11 0 0 0 0 -1 -22 -21 -18 -6 0 0 0 -11 -81 -34 -92 -108 0 0 -35 -30 -16 -32 -27 -31 0 0 -7 -9 0 0 0 0 0 0 0 0 0
-13 -41 -41 0 -14 -14 -35 -35 0 -15 -1 -4 -6 -11 -17 -7 -15 0 0 -5 -8 0 0 0 0 0 -60 -21 -81 -70 -115 -115 -83 -102 -95 -78 -49 -56 -45 -32 -33 -19 -22 -26 -33 0 -10 0 0 0 0 0 0 0
-38 -31 -30 -37 0 -4 -7 0 -13 -17 -9 -2 -3 -1 -12 0 0 0 -4 -15 -25 -33 -53 -44 -40 -56 0 -21 -39 -56 -78 -58 -58 -63 -71 -67 -51 -70 -44 -43 -38 -38 -28 -26 -40 -33 -38 0 0 0 0 -27 -30 -33
-3 -33 -32 -30 -25 -4 -18 0 -8 -16 -1 -2 -18 -4 0 0 0 -10 -10 -13 -13 -28 -34 -40 -46 -48 -41 -39 -46 -48 -71 -69 -55 -51 -78 -60 -61 -57 -35 -30 -31 -31 -42 -40 -28 -19 -24 -37 -49 -30 -27 -24 -23 -35
-25 0 0 0 0 -14 -27 -21 -18 -13 -16 -27 -4 -18 0 0 -2 -1 -6 -9 -9 -13 -17 -14 -25 -29 -26 -32 -27 -24 -42 -66 -52 -36 -30 -33 -30 -34 -34 -21 -23 -27 -69 -44 -22 -24 -25 -28 -18 -23 -30 -11 -9 -29
-19 -8 -12 -36 -9 -24 -15 -11 -11 -10 -22 -17 -16 -13 -12 -3 -2 -10 -22 -19 -18 -27 -25 -28 -33 -33 -24 -30 -30 -31 -31 -38 -36 -29 -4 0 0 -30 -34 -20 -26 -43 -50 -50 -50 -51 -32 -30 -27 -22 -25 -23 -39 -29
-20 -9 -4 -9 -8 -12 -6 -8 -14 -1 -16 -15 -15 -6 -2 -4 -1 -11 -26 -21 -20 -28 -26 -22 -34 -47 -40 -21 -24 0 -15 -24 -30 -27 -26 -15 -31 -28 -32 -38 -51 -7 -52 -38 -41 -31 -31 -40 -32 -29 -25 -29 -33 -40
0 0 -1 0 -5 -4 -6 -3 -6 -14 -11 -7 -5 -10 -14 -17 -15 -21 -20 -36 -60 -31 -38 -34 -24 -34 -39 -34 -31 -25 -31 -22 -19 -8 -19 -19 -22 -24 -39 -52 -58 -58 -7 0 0 -63 -38 -41 -40 -40 -35 -24 -30 -30
-1 0 -8 -9 -11 -20 -14 0 -16 -25 -25 -45 -24 -23 -14 -19 -52 -61 -52 -52 -42 -46 -43 -33 -47 0 -35 -33 -27 -43 -64 -12 -67 -37 -25 -19 -21 -63 -25 -37 -39 -28 -18 -50 -57 -46 -51 -8 0 0 0 0 -19 -28
0 -18 -24 -24 -20 -11 -10 -21 -24 -15 -27 0 -49 -31 -16 -14 -48 -62 -71 -34 0 -31 -58 -46 -51 -57 -45 -28 -31 -37 -28 -27 0 -15 -43 -40 -38 -38 -28 -45 -29 -24 -18 -40 -32 -34 -34 -53 0 -21 0 0 0 -28
0 -2 -12 -6 -9 -23 -20 -15 -2 -21 -23 -21 -10 -29 -12 -21 -19 -32 -48 -42 -30 -19 -39 -52 -34 -60 -83 -102 -101 -91 -72 -50 -63 -95 -65 -54 -40 -55 -50 -60 -49 -43 -33 -47 -3 -50 -38 -46 -33 -32 -33 -21 -14 -21
-9 -7 -17 -10 -5 -5 -20 -22 -7 -4 -13 -20 -22 -15 -19 -13 -4 -18 -28 -35 0 0 -48 -47 -3 0 -43 -34 0 -79 -107 -124 -4 -5 -116 0 -113 0 0 0 0 -53 -48 0 0 -12 -51 -41 -33 -21 -19 -17 -19 -28
Wind_Speed
21 21 22 23 22 23 25 26 26 26 25 24 22 20 17 15 15 12 18 21 19 19 28 26 30 25 24 19 18 26 26 24 24 24 23 22 21 21 23 23 24 22 21 29 25 25 33 25 26 25 11 13 7 3
21 21 23 21 23 23 25 27 26 24 24 23 22 18 16 14 16 13 17 20 24 21 21 32 36 34 19 16 21 20 20 21 18 19 20 19 20 18 20 25 18 17 20 23 19 23 26 24 16 11 2 11 2 9
20 19 20 21 21 24 25 25 25 23 22 21 21 18 16 14 15 15 18 22 22 26 34 26 21 26 7 19 13 20 21 18 17 14 16 18 23 18 21 22 19 17 17 19 22 22 20 17 15 12 13 4 5 3
19 20 18 20 20 21 22 23 24 23 21 19 20 17 16 15 14 15 16 18 20 22 22 23 23 29 24 17 11 19 20 23 19 16 19 20 25 18 19 19 18 14 21 16 17 23 22 17 16 12 9 5 2 5
14 16 17 16 18 19 21 22 23 21 19 20 20 16 16 14 15 15 16 17 17 19 21 28 34 25 24 19 4 18 14 26 28 23 23 26 19 17 19 20 23 16 22 17 14 19 21 24 20 14 12 7 3 10
10 12 13 13 15 16 18 21 23 20 19 19 17 14 13 14 13 14 18 16 15 16 21 23 23 23 23 18 20 3 13 14 23 23 28 26 19 18 21 23 28 23 26 22 20 18 19 25 26 25 19 15 7 4
5 8 12 13 15 16 17 20 22 19 18 17 14 13 12 13 11 14 16 17 18 15 19 23 22 19 22 16 16 13 11 16 19 26 35 34 31 23 19 20 14 28 33 33 29 27 27 28 22 16 16 35 6 9
7 7 11 9 13 16 15 16 15 16 14 12 11 10 11 12 14 17 17 15 15 18 19 20 21 19 18 15 17 14 16 19 21 24 24 24 24 20 27 6 6 26 31 32 30 34 27 27 31 33 28 3 4 6
8 7 8 11 12 14 16 18 11 11 11 9 8 9 11 12 13 16 13 15 16 18 19 19 19 19 20 19 19 19 15 18 21 23 27 24 26 22 15 3 6 7 12 23 29 35 35 31 27 14 7 4 4 5
10 10 8 11 11 12 13 12 8 8 7 6 8 11 13 13 12 12 15 18 19 19 21 23 22 22 21 19 18 20 16 17 20 26 19 21 17 26 24 1 10 14 11 13 14 11 30 30 10 5 4 2 1 3
12 12 8 9 10 13 12 6 5 5 6 10 11 13 13 13 14 16 17 18 17 18 17 18 18 29 23 21 19 18 19 18 19 22 16 22 17 33 36 34 29 4 2 6 5 15 15 23 6 8 3 4 5 5
9 5 6 9 10 8 8 3 0 6 8 10 11 11 12 15 16 16 16 16 17 16 16 17 20 17 18 16 17 19 20 21 21 22 22 27 20 21 17 6 25 14 20 17 17 16 12 12 3 3 5 6 6 13
9 8 7 5 8 9 4 1 3 10 7 11 13 12 15 15 17 17 16 17 16 16 17 20 21 17 15 15 17 19 21 25 28 23 24 21 18 18 10 9 14 22 22 17 11 8 7 6 5 2 7 13 13 11
12 12 8 8 7 10 3 4 9 16 15 14 12 13 16 15 18 14 16 15 18 21 22 22 21 18 17 15 16 19 21 24 26 24 24 16 11 10 8 9 17 21 18 6 8 6 5 5 4 5 6 8 6 6
11 10 8 7 9 10 2 3 12 16 15 13 15 15 17 21 20 21 23 21 19 19 21 21 22 19 19 16 15 17 20 22 21 21 21 17 4 10 4 12 16 4 4 4 4 4 4 4 6 7 8 7 7 7
8 10 12 5 2 2 1 7 11 18 18 17 19 18 20 21 19 19 17 18 19 20 20 19 20 18 19 17 17 21 21 22 22 22 24 21 23 28 28 3 9 4 4 6 6 8 8 8 7 7 7 8 8 7
10 16 4 8 2 3 16 19 19 20 20 19 20 21 20 21 23 19 17 18 20 20 20 20 19 20 19 20 23 22 26 21 21 26 27 22 21 23 4 8 8 4 5 6 7 9 10 10 10 10 9 9 9 9
15 12 2 8 16 20 19 19 18 18 22 24 23 23 20 22 21 22 21 13 19 22 22 21 20 21 22 20 19 23 25 19 21 16 24 22 22 11 2 8 5 5 6 8 9 10 10 10 9 10 10 10 10 10
12 11 19 31 23 18 17 20 19 21 23 22 24 25 24 24 23 19 15 13 17 20 21 21 23 25 23 22 23 23 21 20 23 23 25 24 19 15 0 5 7 9 9 9 9 9 10 10 10 11 11 11 11 11
13 21 34 30 18 19 16 16 20 21 19 19 20 21 21 21 19 17 11 13 20 20 23 24 25 25 22 22 23 22 21 20 18 14 17 21 18 20 5 4 5 6 6 7 9 9 10 11 11 11 12 12 12 12
17 20 25 23 18 17 17 18 21 20 19 21 20 19 20 9 7 8 16 20 21 22 24 25 24 22 20 20 20 22 19 16 8 15 16 24 21 19 5 6 6 6 6 8 9 9 9 10 11 12 11 11 12 12
15 18 17 21 17 18 18 20 19 18 18 18 18 17 13 14 11 15 15 18 18 22 25 24 21 18 21 20 12 20 21 19 12 11 18 13 25 14 7 7 6 7 8 9 11 10 9 10 10 11 10 9 9 9
20 19 17 19 19 17 18 19 18 17 17 16 16 14 13 12 11 12 14 15 16 18 21 19 20 19 20 17 15 16 17 14 10 12 21 20 16 7 13 16 8 12 11 10 10 8 8 9 10 9 8 9 8 7
18 18 17 17 19 18 18 18 19 18 17 15 15 13 13 12 10 9 10 11 13 15 19 11 9 12 16 12 13 11 10 18 18 14 14 12 15 10 11 18 7 10 11 10 8 7 7 8 8 7 6 6 6 6
16 19 17 18 18 18 17 18 19 18 16 15 14 13 13 13 10 9 8 8 9 10 15 18 19 18 17 18 9 10 9 14 12 12 10 11 10 9 11 10 12 8 7 8 7 10 4 5 5 5 6 5 6 5
17 19 18 19 17 18 18 17 17 16 16 15 15 15 14 13 12 11 11 10 11 10 12 13 14 16 15 14 11 10 10 12 12 11 10 11 10 10 10 9 9 6 5 4 5 4 4 3 3 3 3 4 2 3
14 16 18 19 17 17 17 17 15 15 15 15 15 15 14 13 12 13 14 14 13 14 13 12 12 12 12 12 12 13 13 13 14 13 13 15 15 11 8 11 12 12 8 5 3 4 3 2 2 2 5 6 5 3
16 15 16 16 18 19 16 16 16 15 14 15 15 14 13 12 11 11 11 14 15 15 15 13 13 14 15 15 15 14 12 15 16 15 13 15 15 14 13 11 12 14 14 14 13 13 11 7 3 6 11 2 5 4
17 17 17 18 17 17 17 16 15 15 15 15 13 12 12 10 12 13 14 14 17 15 18 15 14 16 17 16 16 16 16 17 16 13 14 16 17 16 14 13 15 17 14 14 16 14 11 12 14 15 17 12 10 9
18 17 18 18 18 17 17 17 16 15 13 14 12 12 10 9 14 17 19 19 19 17 15 17 16 16 16 19 19 17 15 16 17 15 14 15 15 15 16 15 16 17 17 12 14 16 18 21 23 20 16 14 13 13
16 18 19 18 17 15 16 18 14 14 14 17 16 14 11 12 15 17 20 20 20 19 18 16 18 19 18 16 21 19 16 16 17 19 19 15 14 14 15 16 17 17 18 20 16 15 20 22 20 18 17 19 23 21
21 21 18 18 16 17 15 12 13 13 16 17 11 15 11 13 14 14 13 16 19 20 18 17 19 19 18 18 19 20 18 18 17 19 21 20 19 18 17 18 18 17 15 15 16 20 21 23 20 25 22 25 24 21
20 20 18 15 15 16 15 14 11 9 8 10 12 9 10 12 14 11 11 17 21 23 23 22 21 21 19 20 21 20 20 19 19 18 20 20 20 22 24 25 22 20 21 23 22 24 28 29 23 15 19 19 18 12
Wind_Direction
282 285 291 292 299 301 298 298 303 301 302 308 314 322 329 331 324 328 307 302 305 305 292 252 273 295 300 304 305 286 277 286 294 282 278 279 286 293 295 295 282 286 269 274 291 277 258 275 270 259 274 275 297 227
278 282 283 288 290 294 293 292 299 303 304 306 311 324 327 324 320 328 312 304 297 300 300 270 258 238 211 206 297 298 291 281 295 294 284 283 287 300 303 290 306 293 271 270 290 279 277 271 272 277 255 261 323 264
275 279 280 282 288 287 290 293 297 303 302 307 310 318 323 322 320 322 315 304 305 299 292 295 298 289 220 199 199 284 281 287 294 304 299 292 278 295 295 303 307 293 287 272 281 272 276 271 272 295 287 301 330 107
269 275 281 281 284 289 291 293 295 297 301 309 309 315 315 316 323 323 319 314 311 306 308 298 293 282 283 298 189 192 248 274 295 299 293 290 270 295 301 309 305 299 257 276 284 274 270 272 271 277 263 287 172 151
263 275 278 280 285 287 289 292 291 293 300 303 306 313 314 316 318 319 319 317 311 308 308 292 273 281 283 291 222 184 200 265 267 276 279 277 297 306 306 312 295 294 256 266 285 293 275 266 273 279 285 290 152 154
257 271 274 282 285 289 292 291 287 291 295 301 309 316 318 314 321 324 317 324 313 307 304 299 293 288 282 286 285 228 187 268 273 277 272 277 295 303 297 300 283 283 255 262 272 299 293 261 265 266 282 285 288 220
236 253 273 283 283 285 290 288 285 288 296 303 314 316 316 316 320 317 316 315 309 306 301 296 289 293 295 289 295 290 290 280 279 274 261 265 272 292 301 302 326 233 212 237 267 271 272 255 287 285 277 240 165 170
234 257 276 287 286 282 293 296 293 290 303 316 321 329 326 323 314 309 306 313 308 298 295 293 286 291 313 292 291 297 291 284 276 272 277 278 279 287 277 300 141 200 230 234 241 253 211 264 268 274 281 168 202 253
239 257 273 283 286 282 280 279 300 304 314 329 342 342 335 324 317 306 313 306 303 296 290 290 286 284 303 296 289 288 294 288 281 273 267 276 272 278 301 264 175 210 183 199 217 231 224 223 278 317 332 276 277 287
246 257 273 284 283 286 283 290 305 320 328 344 338 325 316 308 320 325 300 293 291 287 280 280 283 278 294 295 283 287 290 286 285 269 281 272 201 269 270 44 165 174 174 290 278 213 199 225 300 333 26 87 357 318
248 259 285 289 284 282 288 304 313 338 325 304 310 312 308 299 296 297 291 286 284 286 292 293 289 259 278 276 282 289 284 282 288 276 276 274 289 214 244 238 219 111 57 121 314 280 284 271 293 300 327 0 37 52
263 306 310 295 286 297 306 316 86 290 296 304 307 314 296 284 285 284 287 284 281 290 292 303 284 287 279 283 287 278 278 277 275 290 271 262 287 280 273 217 179 276 278 285 292 294 305 298 140 199 292 299 345 331
274 292 298 306 304 298 331 4 159 269 290 286 293 293 281 281 272 276 278 278 283 288 291 294 285 290 286 283 284 279 277 262 273 277 266 273 283 284 292 282 266 257 260 295 326 320 338 355 356 297 292 288 311 329
264 272 295 311 315 292 309 263 136 241 260 270 285 279 271 279 273 288 285 284 277 282 290 295 290 285 282 280 285 276 274 275 260 261 259 273 297 303 300 288 264 259 276 340 341 353 7 14 359 344 348 353 18 45
278 286 302 332 287 272 292 161 228 244 258 268 265 268 265 251 250 257 241 268 288 295 293 290 281 283 278 284 289 277 265 265 264 259 269 285 293 296 24 261 256 296 304 353 352 348 349 358 6 352 348 8 21 31
294 284 274 302 7 51 157 224 241 233 240 245 246 250 244 248 264 281 295 298 302 301 296 295 283 286 274 277 275 259 253 261 266 275 269 270 256 229 216 81 105 82 76 87 64 65 58 45 35 33 16 357 357 21
273 251 303 98 102 117 212 217 225 231 238 248 247 245 252 255 258 295 313 310 306 303 291 283 280 268 277 266 259 258 253 273 277 276 257 256 254 231 68 90 97 96 74 50 42 43 48 52 53 50 47 44 49 47
240 251 161 212 204 202 217 224 232 244 237 234 233 233 264 250 255 260 264 349 328 297 282 272 271 256 247 254 259 264 259 273 285 273 237 244 244 276 81 86 67 51 49 50 49 48 46 46 49 50 58 55 47 45
238 226 112 136 198 214 227 224 234 225 212 233 236 234 232 240 268 320 340 349 335 287 256 249 233 231 237 240 258 263 262 271 267 257 234 244 249 251 45 72 67 62 55 49 44 41 44 51 62 63 67 65 63 63
229 201 166 186 215 215 233 241 236 226 235 239 246 256 263 279 326 340 1 348 262 245 230 224 217 219 224 246 249 247 252 256 269 298 270 247 247 239 295 353 21 31 30 33 47 52 48 53 58 69 69 66 67 66
209 201 195 203 220 225 224 223 213 225 236 236 249 274 267 89 128 140 209 210 228 230 218 219 213 199 202 228 219 227 252 279 319 109 245 227 230 240 338 31 14 11 45 47 59 67 66 72 76 78 75 68 74 71
211 203 209 208 220 225 222 216 220 233 239 234 240 259 200 232 185 210 241 222 223 214 205 196 187 193 221 235 203 241 256 270 304 264 207 211 187 119 26 0 348 56 75 87 97 88 72 115 104 103 95 97 99 92
196 205 212 208 211 228 222 222 225 227 222 223 233 226 228 221 202 210 233 222 221 225 204 224 246 207 198 207 246 253 247 265 280 142 145 138 114 129 103 119 64 97 100 94 90 56 47 80 100 91 67 65 79 73
207 214 225 224 211 219 222 221 215 217 218 231 243 234 225 222 214 219 236 232 226 215 178 177 265 229 193 212 218 214 219 192 199 86 91 67 105 70 105 154 15 95 100 96 81 54 48 92 88 60 63 54 71 71
221 219 227 227 221 223 227 226 218 219 227 241 245 222 224 227 229 229 248 255 287 253 213 155 155 163 182 171 290 333 345 63 46 29 14 55 12 21 66 48 113 80 71 50 17 2 57 37 42 48 34 65 117 103
221 218 222 221 224 218 214 220 219 225 231 243 245 220 218 239 244 259 257 271 304 317 341 349 23 34 27 22 359 335 2 356 4 357 355 360 5 24 33 34 33 55 26 65 82 74 90 58 25 39 20 11 52 131
235 227 220 214 220 216 218 220 229 237 239 243 242 236 233 249 283 276 259 268 299 307 291 304 323 326 332 315 329 316 339 353 349 344 342 340 346 1 28 11 5 10 31 40 106 140 102 72 142 140 360 331 359 40
231 231 226 228 216 212 227 224 224 231 234 227 241 242 256 274 276 218 256 269 273 296 304 334 342 345 325 337 340 343 335 320 315 331 354 351 353 1 11 18 3 356 354 353 352 351 352 344 317 327 330 182 187 194
221 223 227 220 222 224 220 232 237 229 225 223 241 255 255 264 275 315 319 323 351 352 348 334 318 314 331 343 340 340 345 335 342 0 352 339 330 341 357 4 1 348 1 7 4 5 4 349 332 315 313 322 328 320
216 223 217 217 219 222 217 209 216 225 236 225 230 221 232 305 335 340 339 332 335 335 338 350 345 332 342 345 343 357 358 349 342 354 358 352 351 358 358 4 354 345 343 347 345 341 333 327 327 319 312 315 311 308
219 210 209 213 218 219 204 190 204 204 203 187 200 222 240 276 329 334 338 332 331 328 330 336 343 344 343 332 335 334 350 356 349 340 348 358 357 352 343 349 351 351 345 327 331 336 322 320 325 328 322 305 288 294
193 195 207 208 210 212 214 223 218 229 212 200 247 209 306 329 322 306 308 331 345 351 344 333 334 345 347 336 338 350 351 344 338 336 335 344 343 343 342 341 338 335 346 338 338 330 328 326 317 294 312 298 291 295
190 189 191 206 208 205 215 225 235 257 302 270 256 290 352 358 348 297 276 331 355 357 3 11 10 7 358 353 348 348 348 349 348 348 347 341 336 336 328 324 329 333 326 319 322 318 297 298 318 324 319 315 318 320